Tracking 20041 objects as of 22-Nov-2019
Live streaming from Space Station
objects crossing your sky now

SL-8 DEB

Track SL-8 DEB now!
10-day predictions


NORAD ID: 39699
Int'l Code: 1991-009DN
Perigee: 1,500.0 km
Apogee: 1,726.8 km
Inclination: 74.1 °
Period: 118.3 minutes
Semi major axis: 7984 km
RCS: 0.0155 m2 (small)
Launch date: February 12, 1991
Source: Commonwealth of Independent States (former USSR) (CIS)
Launch site: PLESETSK MISSILE AND SPACE COMPLEX (PKMTR)

Note: This is SATELLITE DEBRIS
aabbcc
Your satellite tracking list
Your tracking list is empty




NASA's NSSDC Master Catalog

Two Line Element Set (TLE):
1 39699U 91009DN  19325.71249084 -.00000068  00000-0 -53266-3 0  9991
2 39699  74.0963 101.9149 0142019 152.9658 207.8864 12.16847226738276
Source of the keplerian elements: AFSPC